DMSP 5D-3 F17 (USA 191)

Last updated on Sun Jul 06 2025 00:02:20 GMT+0000 (Coordinated Universal Time)

1 29522U 06050A 25186.59565706 .00000022 00000+0 33882-4 0 9997 2 29522 98.7383 195.2741 0009510 331.9942 28.0718 14.14839002963405
UTC large
Height (km)
Speed (km/s)
/
Latitude / Longitude
Inclination (degrees)
Orbital Period (minutes)
Azimuth
Elevation
Range (km)
Doppler Factor

Next 0 passes for location: London (51.5072 / 0.1276)

Sorry there are no passes over London.